Location: Lac Echo
(45.9375°N, 75.4580°W)
Time: 23:55:26
(UTC-05:00)

Amateur Radio Satellites - All Passes

Search period start: 21 November 2014 23:25
Search period end: 22 November 2014 23:25
Location: Lac Echo, 45.9375°N, 75.4580°W

Satellite Date Start Highest point End Downlink Frequencies (MHz)
Time Altitude Azimuth
TISAT 1 21 Nov 23:29:47 23:34:03 68° 258° (WSW) 23:38:20 437.305
ANTELSAT 21 Nov 23:31:30 23:35:37 41° 290° (WNW) 23:39:48 437.575/2403.000
NANOSAT C BR1 21 Nov 23:38:36 23:42:39 46° 289° (WNW) 23:46:40 145.865
ITUPSAT 1 21 Nov 23:42:12 23:46:18 29° 65° (ENE) 23:50:25 437.325
ESTCUBE 1 21 Nov 23:43:44 23:46:29 16° 270° (W) 23:49:15 437.505/2401.250
QB50P1 21 Nov 23:47:57 23:51:51 37° 291° (WNW) 23:55:44 145.935-145.965
RS-15 21 Nov 23:50:02 00:00:33 45° 34° (NE) 00:11:25 29.354- 29.394
SWISSCUBE 21 Nov 23:54:36 23:59:03 40° 68° (ENE) 00:03:33 437.505
AUBIESAT-1 21 Nov 23:56:09 00:00:06 83° 70° (ENE) 00:04:29 437.475
M-CUBED/EXP-1 PRIME 21 Nov 23:58:02 00:01:58 86° 251° (WSW) 00:06:21 437.505
POPSAT HIP 1 22 Nov 00:12:36 00:15:52 22° 295° (WNW) 00:19:07 437.405
BUGSAT 1 22 Nov 00:24:11 00:27:10 19° 296° (WNW) 00:30:06 437.445
Oscar 19 22 Nov 00:25:08 00:28:15 16° 89° (E) 00:31:22 437.125/150
BEESAT 22 Nov 00:26:22 00:31:08 73° 73° (ENE) 00:35:57 436.000
TIGRISAT 22 Nov 00:30:49 00:32:42 13° 301° (WNW) 00:34:36 435.000
KKS-1 22 Nov 00:33:10 00:36:26 20° 63° (ENE) 00:39:41 437.445
POLYITAN 1 22 Nov 00:44:42 00:46:11 12° 301° (WNW) 00:47:40 437.675
QB50P2 22 Nov 00:49:09 00:50:06 11° 302° (WNW) 00:51:04 145.880/145.840
CUSAT 1 22 Nov 01:01:36 01:05:18 34° 263° (W) 01:10:06 437.405
DANDE 22 Nov 01:06:57 01:10:32 34° 263° (W) 01:15:11 436.750
ITAMSAT 1 22 Nov 01:07:53 01:10:54 15° 89° (E) 01:13:54 435.822/435.867
ISS 22 Nov 01:15:36 01:18:45 44° 144° (SE) 01:21:54 145.825
ITUPSAT 1 22 Nov 01:19:38 01:24:04 37° 263° (W) 01:28:33 437.325
MaSat-1 22 Nov 01:21:50 01:24:09 80° 240° (WSW) 01:26:29 437.345
SWISSCUBE 22 Nov 01:33:03 01:37:03 26° 266° (W) 01:41:04 437.505
STARS 22 Nov 01:37:27 01:41:47 58° 72° (ENE) 01:46:07 437.465
RS-15 22 Nov 02:02:41 02:13:48 73° 240° (WSW) 02:25:25 29.354- 29.394
Oscar 19 22 Nov 02:02:59 02:08:08 72° 287° (WNW) 02:13:16 437.125/150
BEESAT 22 Nov 02:07:02 02:09:32 14° 271° (W) 02:12:02 436.000
KKS-1 22 Nov 02:08:27 02:12:46 48° 260° (W) 02:17:06 437.445
YUBILEINY 22 Nov 02:27:09 02:35:37 54° 90° (E) 02:44:03 435.215
AO-7 22 Nov 02:42:02 02:46:48 16° 87° (E) 02:51:33 29.400- 29.500
MOZHAYETS 4 22 Nov 02:42:29 02:44:48 14° 59° (ENE) 02:47:07
ITAMSAT 1 22 Nov 02:45:47 02:50:58 74° 287° (WNW) 02:56:07 435.822/435.867
PCSat 22 Nov 02:47:06 02:48:37 11° 23° (NNE) 02:50:07 145.827
Gurwin Techsat 1B 22 Nov 02:51:03 02:56:23 75° 103° (ESE) 03:01:41 435.225
ISS 22 Nov 02:52:17 02:55:26 42° 343° (NNW) 02:58:36 145.825
HORYU 2 22 Nov 03:11:48 03:16:13 56° 101° (E) 03:20:38 437.375
STARS 22 Nov 03:16:01 03:18:39 15° 269° (W) 03:21:17 437.465
BEESAT 3 22 Nov 03:41:05 03:42:43 12° 28° (NNE) 03:44:22 437.485
Oscar 19 22 Nov 03:44:50 03:46:34 12° 306° (NW) 03:48:19 437.125/150
BEESAT 2 22 Nov 03:52:29 03:54:33 13° 30° (NNE) 03:56:36 435.950
PRISM 22 Nov 03:56:40 03:59:07 15° 61° (ENE) 04:01:35 437.425
AIST 2 22 Nov 04:07:09 04:08:39 12° 27° (NNE) 04:10:08 435.215
SO-50 22 Nov 04:14:13 04:18:09 30° 115° (ESE) 04:22:12 436.795
MOZHAYETS 4 22 Nov 04:16:49 04:21:24 80° 257° (WSW) 04:26:03
RS-15 22 Nov 04:17:16 04:24:12 19° 262° (W) 04:31:19 29.354- 29.394
YUBILEINY 22 Nov 04:24:39 04:32:43 39° 291° (WNW) 04:40:48 435.215
ITAMSAT 1 22 Nov 04:27:35 04:29:34 12° 306° (NW) 04:31:34 435.822/435.867
PCSat 22 Nov 04:28:45 04:33:44 35° 46° (NE) 04:38:41 145.827
ISS 22 Nov 04:29:40 04:32:37 29° 3° (N) 04:35:34 145.825
STRAND 1 22 Nov 04:30:33 04:33:46 17° 58° (ENE) 04:36:59 437.568
Gurwin Techsat 1B 22 Nov 04:32:16 04:35:46 18° 302° (WNW) 04:39:15 435.225
AO-7 22 Nov 04:32:34 04:40:58 75° 107° (ESE) 04:49:20 29.400- 29.500
JAS-2 22 Nov 04:46:55 04:53:52 42° 94° (E) 05:00:03 435.910
HORYU 2 22 Nov 04:49:29 04:52:30 18° 298° (WNW) 04:55:32 437.375
Cubesat XI-IV 22 Nov 04:53:05 04:53:58 10° 85° (E) 04:54:51 437.490
BEESAT 3 22 Nov 05:17:48 05:21:56 52° 49° (NE) 05:26:00 437.485
BEESAT 2 22 Nov 05:29:31 05:33:43 61° 51° (NE) 05:37:52 435.950
PRISM 22 Nov 05:30:03 05:34:12 61° 258° (WSW) 05:38:25 437.425
CUTE-I 22 Nov 05:32:57 05:37:18 25° 93° (E) 05:41:36 437.470
AIST 2 22 Nov 05:44:11 05:48:22 46° 48° (NE) 05:52:29 435.215
O/OREOS (USA 219) 22 Nov 05:44:37 05:47:30 17° 100° (E) 05:50:22 437.305
CUBESAT XI-V 22 Nov 05:45:21 05:50:02 67° 74° (ENE) 05:54:45 437.345
SO-50 22 Nov 05:54:16 05:58:35 40° 315° (NW) 06:03:02 436.795
ISS 22 Nov 06:06:25 06:09:41 59° 23° (NNE) 06:12:58 145.825
STRAND 1 22 Nov 06:07:11 06:12:20 78° 256° (WSW) 06:17:31 437.568
PCSat 22 Nov 06:12:08 06:17:15 43° 246° (WSW) 06:22:20 145.827
AO-7 22 Nov 06:26:08 06:33:04 31° 308° (NW) 06:40:00 29.400- 29.500
GONETS M04 22 Nov 06:27:54 06:30:12 11° 69° (ENE) 06:32:30
Cubesat XI-IV 22 Nov 06:29:35 06:34:57 77° 104° (ESE) 06:40:16 437.490
JAS-2 22 Nov 06:31:58 06:38:53 43° 296° (WNW) 06:45:07 435.910
BEESAT 3 22 Nov 06:56:49 06:59:49 19° 248° (WSW) 07:02:48 437.485
AIST 1 22 Nov 07:04:49 07:09:15 77° 81° (E) 07:13:37
BEESAT 2 22 Nov 07:08:55 07:11:34 16° 249° (WSW) 07:14:12 435.950
CUTE-I 22 Nov 07:12:30 07:17:37 48° 291° (WNW) 07:22:41 437.470
O/OREOS (USA 219) 22 Nov 07:22:02 07:26:27 55° 298° (WNW) 07:30:52 437.305
AIST 2 22 Nov 07:23:22 07:26:45 23° 247° (WSW) 07:30:06 435.215
CUBESAT XI-V 22 Nov 07:25:15 07:27:57 15° 271° (W) 07:30:40 437.345
SO-50 22 Nov 07:38:36 07:40:27 12° 338° (NNW) 07:42:19 436.795
ISS 22 Nov 07:43:22 07:46:10 25° 221° (SW) 07:48:57 145.825
HO-68 22 Nov 07:46:30 07:51:39 21° 90° (E) 07:56:45 435.675
CUTE 1.7 & AOD 2 22 Nov 07:48:23 07:49:47 11° 88° (E) 07:51:11 437.475
STRAND 1 22 Nov 07:52:05 07:52:22 10° 274° (W) 07:52:39 437.568
Cubesat XI-IV 22 Nov 08:10:58 08:14:25 18° 302° (WNW) 08:17:52 437.490
GONETS M04 22 Nov 08:16:25 08:24:57 59° 91° (E) 08:33:34
TIGRISAT 22 Nov 08:20:28 08:21:48 11° 58° (ENE) 08:23:08 435.000
JAS-2 22 Nov 08:20:42 08:21:53 10° 318° (NW) 08:23:02 435.910
DOVE 4 22 Nov 08:22:59 08:24:59 13° 90° (E) 08:27:00 437.250
SEEDS 22 Nov 08:25:16 08:28:46 24° 94° (E) 08:32:16 437.485
POLYITAN 1 22 Nov 08:30:28 08:31:19 11° 58° (ENE) 08:32:10 437.675
UNISAT 6 22 Nov 08:30:31 08:32:52 15° 61° (ENE) 08:35:13 437.425
QB50P2 22 Nov 08:33:41 08:35:05 12° 59° (ENE) 08:36:30 145.880/145.840
DUCHIFAT 1 22 Nov 08:41:47 08:43:54 14° 60° (ENE) 08:46:01 145.980
GOMX 1 22 Nov 08:43:55 08:47:33 29° 96° (E) 08:51:11 467.674
AIST 1 22 Nov 08:45:11 08:46:13 11° 279° (W) 08:47:15
CANX-2 22 Nov 08:46:44 08:50:55 51° 100° (E) 08:55:05 2200.000
BRITE-PL 22 Nov 08:50:27 08:54:30 46° 99° (E) 08:58:29 437.365/2234.400
AAUSAT CUBESAT 2 22 Nov 08:50:38 08:54:29 34° 97° (E) 08:58:20 437.432
ANTELSAT 22 Nov 08:57:18 09:00:51 26° 66° (ENE) 09:04:24 437.575/2403.000
NANOSAT C BR1 22 Nov 08:59:18 09:02:24 20° 64° (ENE) 09:05:31 145.865
COMPASS 1 22 Nov 09:02:43 09:06:52 51° 100° (E) 09:11:00 437.405
QB50P1 22 Nov 09:08:11 09:11:38 24° 66° (ENE) 09:15:04 145.935-145.965
DELFI C3 22 Nov 09:17:36 09:21:13 29° 95° (E) 09:24:49 145.870
CUTE 1.7 & AOD 2 22 Nov 09:21:57 09:26:14 74° 285° (WNW) 09:30:31 437.475
FUNcube-1 22 Nov 09:26:29 09:29:29 19° 92° (E) 09:32:30 145.935
CINEMA 3 22 Nov 09:29:11 09:33:08 41° 98° (E) 09:37:09 145.822/145.860
UKube-1 22 Nov 09:29:53 09:33:59 39° 98° (E) 09:38:02 .
POPSAT HIP 1 22 Nov 09:31:43 09:35:43 41° 70° (ENE) 09:39:43 437.405
CUBEBUG 2 22 Nov 09:32:03 09:35:43 28° 96° (E) 09:39:26 437.445
HO-68 22 Nov 09:32:56 09:40:09 82° 289° (WNW) 09:47:19 435.675
BUGSAT 1 22 Nov 09:40:35 09:44:38 43° 70° (ENE) 09:48:40 437.445
UWE-3 22 Nov 09:41:13 09:44:58 31° 96° (E) 09:48:46 435.000/436.395/437.385
Oscar 11 22 Nov 09:44:19 09:48:39 65° 102° (ESE) 09:52:58 145.826/435.025
TIGRISAT 22 Nov 09:53:39 09:57:56 86° 255° (WSW) 10:02:13 435.000
ESTCUBE 1 22 Nov 09:58:05 09:59:04 11° 87° (E) 10:00:03 437.505/2401.250
DOVE 4 22 Nov 09:59:06 10:03:11 58° 287° (WNW) 10:07:18 437.250
SEEDS 22 Nov 10:00:49 10:04:40 34° 291° (WNW) 10:08:31 437.485
DX 1 22 Nov 10:01:00 10:05:23 85° 104° (ESE) 10:09:43 434.975-435.025
POLYITAN 1 22 Nov 10:02:18 10:06:35 87° 76° (ENE) 10:10:52 437.675
UNISAT 6 22 Nov 10:04:56 10:09:12 64° 258° (WSW) 10:13:27 437.425
QB50P2 22 Nov 10:06:05 10:10:22 86° 256° (WSW) 10:14:40 145.880/145.840
VELOX 1 22 Nov 10:12:11 10:16:18 36° 97° (E) 10:20:22 145.980
GONETS M04 22 Nov 10:14:20 10:22:14 36° 293° (WNW) 10:30:13
DUCHIFAT 1 22 Nov 10:15:00 10:19:15 71° 258° (WSW) 10:23:31 145.980
GOMX 1 22 Nov 10:22:11 10:25:40 26° 293° (WNW) 10:29:08 467.674
CANX-2 22 Nov 10:23:37 10:26:30 18° 297° (WNW) 10:29:23 2200.000
ZACube-1 22 Nov 10:25:36 10:29:49 80° 103° (ESE) 10:34:04 437.345
AAUSAT CUBESAT 2 22 Nov 10:26:36 10:30:03 25° 294° (WNW) 10:33:29 437.432
BRITE-PL 22 Nov 10:29:56 10:32:43 17° 297° (WNW) 10:35:27 437.365/2234.400
ANTELSAT 22 Nov 10:33:44 10:37:35 32° 263° (W) 10:41:26 437.575/2403.000
NANOSAT C BR1 22 Nov 10:33:56 10:38:01 44° 261° (W) 10:42:07 145.865
AISAT 22 Nov 10:35:35 10:40:01 65° 102° (ESE) 10:44:23 437.250
COMPASS 1 22 Nov 10:39:26 10:42:14 18° 297° (WNW) 10:45:03 437.405
HUMSAT D 22 Nov 10:40:37 10:44:47 72° 102° (ESE) 10:48:57 437.325/437.525
QB50P1 22 Nov 10:43:27 10:47:23 35° 263° (W) 10:51:19 145.935-145.965
DELFI C3 22 Nov 10:52:57 10:56:29 27° 293° (WNW) 10:59:59 145.870
50 SAT 22 Nov 10:57:35 11:01:39 88° 283° (WNW) 11:05:43 437.505
FUNcube-1 22 Nov 11:02:05 11:06:03 42° 289° (WNW) 11:10:04 145.935
SO-50 22 Nov 11:03:09 11:06:00 15° 28° (NNE) 11:08:52 436.795
CUBEBUG 1 22 Nov 11:04:25 11:08:41 48° 99° (E) 11:12:52 437.445
SHINDAISAT 22 Nov 11:05:59 11:07:47 44° 123° (ESE) 11:09:36 437.305
UKube-1 22 Nov 11:06:32 11:09:57 23° 296° (WNW) 11:13:21 .
CINEMA 3 22 Nov 11:07:05 11:10:08 20° 295° (WNW) 11:13:14 145.822/145.860
POPSAT HIP 1 22 Nov 11:08:36 11:11:48 20° 267° (W) 11:15:00 437.405
CUBEBUG 2 22 Nov 11:08:49 11:12:24 28° 292° (WNW) 11:16:02 437.445
SPROUT 22 Nov 11:10:53 11:13:03 14° 89° (E) 11:15:12 437.525
TISAT 1 22 Nov 11:13:48 11:16:28 16° 91° (E) 11:19:07 437.305
BUGSAT 1 22 Nov 11:17:12 11:20:19 20° 267° (W) 11:23:27 437.445
UWE-3 22 Nov 11:17:57 11:21:27 26° 293° (WNW) 11:24:59 435.000/436.395/437.385
Oscar 11 22 Nov 11:21:53 11:24:20 15° 299° (WNW) 11:26:47 145.826/435.025
HO-68 22 Nov 11:22:01 11:26:51 20° 309° (NW) 11:31:40 435.675
ESTCUBE 1 22 Nov 11:32:00 11:36:35 86° 285° (WNW) 11:41:08 437.505/2401.250
DX 1 22 Nov 11:39:18 11:40:58 12° 302° (WNW) 11:42:39 434.975-435.025
Oscar 19 22 Nov 11:44:01 11:48:25 30° 65° (ENE) 11:52:50 437.125/150
VELOX 1 22 Nov 11:49:06 11:52:44 25° 295° (WNW) 11:56:21 145.980
ZACube-1 22 Nov 12:04:06 12:05:37 12° 300° (WNW) 12:07:08 437.345
AISAT 22 Nov 12:13:32 12:16:09 16° 300° (WNW) 12:18:46 437.250
HUMSAT D 22 Nov 12:18:15 12:20:04 13° 300° (WNW) 12:21:53 437.325/437.525
BEESAT 22 Nov 12:25:43 12:28:37 16° 90° (E) 12:31:31 436.000
ITAMSAT 1 22 Nov 12:27:41 12:32:14 31° 65° (ENE) 12:36:48 435.822/435.867
YUBILEINY 22 Nov 12:34:21 12:41:51 30° 65° (ENE) 12:49:15 435.215
Gurwin Techsat 1B 22 Nov 12:36:25 12:40:30 23° 61° (ENE) 12:44:34 435.225
CUSAT 1 22 Nov 12:36:55 12:38:18 13° 93° (E) 12:39:38 437.405
CUBEBUG 1 22 Nov 12:41:35 12:44:44 20° 297° (WNW) 12:47:51 437.445
SO-50 22 Nov 12:42:46 12:47:34 58° 49° (NE) 12:52:24 436.795
DANDE 22 Nov 12:44:28 12:46:03 14° 94° (E) 12:47:32 436.750
SPROUT 22 Nov 12:45:19 12:49:34 62° 287° (WNW) 12:53:47 437.525
TISAT 1 22 Nov 12:48:32 12:52:38 50° 289° (WNW) 12:56:41 437.305
AUBIESAT-1 22 Nov 13:11:04 13:15:52 51° 105° (ESE) 13:20:37 437.475
ESTCUBE 1 22 Nov 13:11:10 13:12:44 12° 303° (WNW) 13:14:19 437.505/2401.250
M-CUBED/EXP-1 PRIME 22 Nov 13:13:19 13:18:12 59° 106° (ESE) 13:23:02 437.505
ITUPSAT 1 22 Nov 13:17:34 13:22:14 47° 99° (E) 13:26:51 437.325
Oscar 19 22 Nov 13:22:53 13:27:38 39° 263° (W) 13:32:25 437.125/150
SWISSCUBE 22 Nov 13:30:05 13:34:54 69° 102° (ESE) 13:39:40 437.505
AO-7 22 Nov 13:43:13 13:50:13 32° 53° (NE) 13:57:16 29.400- 29.500
KKS-1 22 Nov 13:57:37 14:01:24 27° 95° (E) 14:05:10 437.445
BEESAT 22 Nov 14:02:09 14:06:56 65° 288° (WNW) 14:11:40 436.000
ITAMSAT 1 22 Nov 14:06:46 14:11:37 39° 262° (W) 14:16:30 435.822/435.867
HORYU 2 22 Nov 14:12:46 14:17:09 70° 73° (ENE) 14:21:36 437.375
Gurwin Techsat 1B 22 Nov 14:14:51 14:20:04 57° 259° (W) 14:25:20 435.225
CUSAT 1 22 Nov 14:19:30 14:21:19 16° 288° (WNW) 14:23:04 437.405
SO-50 22 Nov 14:24:02 14:27:47 22° 247° (WSW) 14:31:32 436.795
RS-15 22 Nov 14:25:58 14:29:32 12° 93° (E) 14:33:06 29.354- 29.394
DANDE 22 Nov 14:27:31 14:29:26 16° 287° (WNW) 14:31:14 436.750
YUBILEINY 22 Nov 14:30:45 14:39:23 68° 267° (W) 14:47:56 435.215
AUBIESAT-1 22 Nov 14:46:37 14:50:33 25° 302° (WNW) 14:54:29 437.475
M-CUBED/EXP-1 PRIME 22 Nov 14:49:06 14:52:51 22° 303° (WNW) 14:56:37 437.505
ITUPSAT 1 22 Nov 14:56:05 14:59:50 23° 297° (WNW) 15:03:35 437.325
JAS-2 22 Nov 15:00:43 15:07:04 30° 58° (ENE) 15:13:33 435.910
STARS 22 Nov 15:01:31 15:05:56 84° 103° (ESE) 15:10:19 437.465
SWISSCUBE 22 Nov 15:09:12 15:12:14 17° 301° (WNW) 15:15:16 437.505
KKS-1 22 Nov 15:34:06 15:38:05 33° 293° (WNW) 15:42:03 437.445
AO-7 22 Nov 15:34:09 15:42:24 71° 254° (WSW) 15:50:45 29.400- 29.500
O/OREOS (USA 219) 22 Nov 15:50:18 15:54:39 50° 61° (ENE) 15:59:00 437.305
HORYU 2 22 Nov 15:52:21 15:54:20 13° 271° (W) 15:56:21 437.375
MOZHAYETS 4 22 Nov 16:10:24 16:13:58 21° 92° (E) 16:17:30
Cubesat XI-IV 22 Nov 16:15:37 16:19:54 25° 62° (ENE) 16:24:12 437.490
PHONESAT 2.4 22 Nov 16:16:44 16:19:02 16° 155° (SSE) 16:21:20 2401.200-2431.200
MaSat-1 22 Nov 16:27:41 16:30:38 49° 300° (WNW) 16:33:19 437.345
RS-15 22 Nov 16:28:39 16:39:16 60° 116° (ESE) 16:49:53 29.354- 29.394
YUBILEINY 22 Nov 16:30:34 16:34:23 14° 289° (WNW) 16:38:11 435.215
STARS 22 Nov 16:39:59 16:41:47 12° 302° (WNW) 16:43:35 437.465
VERMONT LUNAR 22 Nov 16:42:57 16:45:54 23° 163° (SSE) 16:48:51 437.305
JAS-2 22 Nov 16:43:50 16:51:22 74° 258° (WSW) 16:59:18 435.910
CUTE-I 22 Nov 16:57:01 17:02:12 52° 69° (ENE) 17:07:24 437.470
PRISM 22 Nov 17:12:05 17:14:48 16° 91° (E) 17:17:30 437.425
O/OREOS (USA 219) 22 Nov 17:30:35 17:33:40 19° 259° (W) 17:36:46 437.305
AO-7 22 Nov 17:32:33 17:36:42 15° 275° (W) 17:40:53 29.400- 29.500
CUBESAT XI-V 22 Nov 17:41:27 17:43:59 14° 88° (E) 17:46:29 437.345
MOZHAYETS 4 22 Nov 17:46:57 17:51:25 46° 290° (WNW) 17:55:51
PHONESAT 2.4 22 Nov 17:53:53 17:57:14 32° 172° (S) 18:00:35 2401.200-2431.200
Cubesat XI-IV 22 Nov 17:54:26 17:59:40 53° 260° (W) 18:04:56 437.490
STRAND 1 22 Nov 18:15:43 18:20:11 30° 95° (E) 18:24:37 437.568
HO-68 22 Nov 18:18:26 18:23:45 23° 53° (NE) 18:29:04 435.675
VERMONT LUNAR 22 Nov 18:20:35 18:23:56 35° 180° (S) 18:27:16 437.305
GONETS M04 22 Nov 18:23:43 18:31:33 34° 66° (ENE) 18:39:18
BRITE-PL 22 Nov 18:29:06 18:30:23 11° 58° (ENE) 18:31:39 437.365/2234.400
JAS-2 22 Nov 18:33:25 18:37:42 16° 278° (W) 18:42:05 435.910
CUTE-I 22 Nov 18:38:18 18:42:33 24° 267° (W) 18:46:50 437.470
RS-15 22 Nov 18:41:22 18:51:55 51° 321° (NW) 19:02:37 29.354- 29.394
CUTE 1.7 & AOD 2 22 Nov 18:44:25 18:46:13 13° 60° (ENE) 18:48:02 437.475
SHINDAISAT 22 Nov 18:45:38 18:46:56 17° 47° (NE) 18:48:13 437.305
PRISM 22 Nov 18:46:31 18:50:39 51° 289° (WNW) 18:54:45 437.425
PCSat 22 Nov 19:14:57 19:18:20 17° 105° (ESE) 19:21:43 145.827
CUBESAT XI-V 22 Nov 19:17:15 19:21:56 68° 286° (WNW) 19:26:33 437.345
SEEDS 22 Nov 19:20:29 19:23:52 24° 66° (ENE) 19:27:17 437.485
DX 1 22 Nov 19:25:44 19:27:42 13° 58° (ENE) 19:29:40 434.975-435.025
DOVE 4 22 Nov 19:30:47 19:34:16 22° 65° (ENE) 19:37:37 437.250
PHONESAT 2.4 22 Nov 19:32:17 19:35:38 32° 189° (S) 19:38:58 2401.200-2431.200
AIST 1 22 Nov 19:37:02 19:41:08 40° 92° (E) 19:45:16
CANX-2 22 Nov 19:42:20 19:46:24 50° 72° (ENE) 19:50:30 2200.000
AAUSAT CUBESAT 2 22 Nov 19:44:39 19:48:21 32° 69° (ENE) 19:52:05 437.432
ZACube-1 22 Nov 19:52:40 19:52:48 10° 58° (ENE) 19:52:56 437.345
GOMX 1 22 Nov 19:54:08 19:58:46 46° 71° (ENE) 20:03:07 467.674
STRAND 1 22 Nov 19:54:44 19:59:27 39° 293° (WNW) 20:04:09 437.568
COMPASS 1 22 Nov 19:56:55 20:00:56 48° 72° (ENE) 20:04:58 437.405
VERMONT LUNAR 22 Nov 19:58:59 20:01:58 24° 197° (SSW) 20:04:56 437.305
BRITE-PL 22 Nov 20:03:07 20:08:14 76° 75° (ENE) 20:12:58 437.365/2234.400
HO-68 22 Nov 20:03:25 20:10:38 86° 253° (WSW) 20:17:53 435.675
AISAT 22 Nov 20:03:43 20:04:44 11° 57° (ENE) 20:05:44 437.250
DELFI C3 22 Nov 20:09:11 20:12:36 26° 67° (ENE) 20:16:01 145.870
CUTE 1.7 & AOD 2 22 Nov 20:17:22 20:21:34 76° 258° (WSW) 20:25:49 437.475
GONETS M04 22 Nov 20:20:16 20:28:57 63° 268° (W) 20:37:33
FUNcube-1 22 Nov 20:25:22 20:28:34 21° 65° (ENE) 20:31:45 145.935
UKube-1 22 Nov 20:27:23 20:31:33 47° 70° (ENE) 20:35:45 .
CUBEBUG 2 22 Nov 20:33:09 20:37:01 33° 69° (ENE) 20:40:49 437.445
CINEMA 3 22 Nov 20:33:32 20:37:51 53° 72° (ENE) 20:42:01 145.822/145.860
UWE-3 22 Nov 20:41:13 20:45:06 35° 69° (ENE) 20:48:56 435.000/436.395/437.385
Oscar 11 22 Nov 20:41:28 20:45:44 69° 74° (ENE) 20:50:02 145.826/435.025
BEESAT 3 22 Nov 20:53:03 20:56:58 44° 119° (ESE) 21:00:57 437.485
PCSat 22 Nov 20:55:39 21:01:04 78° 303° (WNW) 21:06:32 145.827
SEEDS 22 Nov 20:55:46 20:59:34 33° 264° (W) 21:03:25 437.485
RS-15 22 Nov 20:58:25 21:07:35 29° 354° (N) 21:16:58 29.354- 29.394
DX 1 22 Nov 20:58:56 21:03:20 81° 256° (WSW) 21:07:45 434.975-435.025
ESTCUBE 1 22 Nov 20:59:42 21:02:20 15° 60° (ENE) 21:04:57 437.505/2401.250
BEESAT 2 22 Nov 21:05:17 21:09:18 54° 121° (ESE) 21:13:24 435.950
DOVE 4 22 Nov 21:07:19 21:11:50 45° 261° (W) 21:16:06 437.250
PHONESAT 2.4 22 Nov 21:11:34 21:13:49 15° 205° (SSW) 21:16:04 2401.200-2431.200
VELOX 1 22 Nov 21:12:27 21:16:43 45° 70° (ENE) 21:21:00 145.980
AIST 1 22 Nov 21:15:37 21:18:58 21° 291° (WNW) 21:22:22
CANX-2 22 Nov 21:19:58 21:22:39 16° 269° (W) 21:25:21 2200.000
AAUSAT CUBESAT 2 22 Nov 21:20:41 21:24:05 24° 266° (W) 21:27:32 437.432
AIST 2 22 Nov 21:23:17 21:27:17 42° 119° (ESE) 21:31:21 435.215
ZACube-1 22 Nov 21:24:16 21:28:31 86° 76° (ENE) 21:32:43 437.345
GOMX 1 22 Nov 21:33:24 21:37:05 21° 267° (W) 21:40:36 467.674
COMPASS 1 22 Nov 21:34:18 21:36:58 16° 269° (W) 21:39:38 437.405
HUMSAT D 22 Nov 21:35:23 21:39:30 71° 74° (ENE) 21:43:38 437.325/437.525
AISAT 22 Nov 21:36:07 21:40:37 80° 75° (ENE) 21:45:07 437.250
TIGRISAT 22 Nov 21:44:02 21:46:49 16° 91° (E) 21:49:38 435.000
DELFI C3 22 Nov 21:44:16 21:47:50 29° 264° (W) 21:51:26 145.870
BRITE-PL 22 Nov 21:44:35 21:47:10 14° 270° (W) 21:49:41 437.365/2234.400
POLYITAN 1 22 Nov 21:47:58 21:49:38 12° 89° (E) 21:51:18 437.675
50 SAT 22 Nov 21:48:53 21:52:56 84° 76° (ENE) 21:57:00 437.505
QB50P2 22 Nov 21:51:12 21:53:15 13° 89° (E) 21:55:17 145.880/145.840
HO-68 22 Nov 21:54:54 21:59:20 17° 272° (W) 22:03:48 435.675
UNISAT 6 22 Nov 21:55:06 21:58:31 22° 93° (E) 22:01:58 437.425
DUCHIFAT 1 22 Nov 21:59:15 22:01:50 16° 91° (E) 22:04:25 145.980
FUNcube-1 22 Nov 22:00:46 22:04:44 39° 262° (W) 22:08:40 145.935
CUBEBUG 1 22 Nov 22:03:01 22:07:22 55° 72° (ENE) 22:11:44 437.445
UKube-1 22 Nov 22:04:55 22:07:59 19° 268° (W) 22:11:03 .
SPROUT 22 Nov 22:07:52 22:10:31 16° 62° (ENE) 22:13:10 437.525
TISAT 1 22 Nov 22:09:10 22:12:09 19° 63° (ENE) 22:15:07 437.305
CUBEBUG 2 22 Nov 22:10:17 22:13:48 24° 266° (W) 22:17:15 437.445
CINEMA 3 22 Nov 22:12:35 22:15:22 16° 269° (W) 22:18:05 145.822/145.860
NANOSAT C BR1 22 Nov 22:17:21 22:20:50 24° 94° (E) 22:24:17 145.865
UWE-3 22 Nov 22:18:22 22:21:45 23° 266° (W) 22:25:07 435.000/436.395/437.385
Oscar 11 22 Nov 22:20:35 22:22:24 12° 271° (W) 22:24:13 145.826/435.025
GONETS M04 22 Nov 22:20:40 22:23:48 12° 290° (WNW) 22:26:57
ANTELSAT 22 Nov 22:22:52 22:27:02 41° 98° (E) 22:31:17 437.575/2403.000
QB50P1 22 Nov 22:26:32 22:30:17 30° 96° (E) 22:34:00 145.935-145.965
AUBIESAT-1 22 Nov 22:31:03 22:32:55 13° 51° (NE) 22:34:52 437.475
BEESAT 3 22 Nov 22:31:53 22:35:23 26° 319° (NW) 22:38:56 437.485
M-CUBED/EXP-1 PRIME 22 Nov 22:33:13 22:35:28 14° 52° (NE) 22:37:49 437.505
ESTCUBE 1 22 Nov 22:34:08 22:38:40 70° 258° (WSW) 22:43:14 437.505/2401.250
PCSat 22 Nov 22:41:38 22:45:23 19° 325° (NW) 22:49:10 145.827
BEESAT 2 22 Nov 22:44:33 22:47:54 23° 321° (NW) 22:51:17 435.950
VELOX 1 22 Nov 22:50:14 22:53:32 20° 267° (W) 22:56:51 145.980
POPSAT HIP 1 22 Nov 22:50:34 22:54:43 54° 100° (E) 22:58:51 437.405
ITUPSAT 1 22 Nov 22:53:26 22:54:34 11° 55° (NE) 22:55:42 437.325
BUGSAT 1 22 Nov 22:56:17 23:00:19 52° 100° (E) 23:04:17 437.445
AIST 2 22 Nov 23:02:22 23:06:04 28° 318° (NW) 23:09:48 435.215
SWISSCUBE 22 Nov 23:04:07 23:06:46 15° 58° (ENE) 23:09:25 437.505
CUSAT 1 22 Nov 23:09:51 23:13:15 24° 74° (ENE) 23:17:29 437.405
HUMSAT D 22 Nov 23:14:34 23:15:49 11° 272° (W) 23:17:04 437.325/437.525
AISAT 22 Nov 23:16:22 23:17:50 11° 272° (W) 23:19:17 437.250
